GFSFLT2_500_temp_285.txt.gz
Temp
-19 -20 -20 -20 -20 -21 -21 -21 -21 -22 -22 -23 -23 -23 -24 -24 -25 -25 -24 -24 -24 -24 -24 -24 -24 -23 -23
-20 -21 -21 -21 -21 -22 -22 -22 -22 -22 -23 -24 -24 -24 -24 -25 -25 -25 -25 -25 -24 -24 -24 -24 -24 -24 -23
-21 -21 -21 -22 -22 -22 -23 -22 -23 -23 -24 -24 -25 -25 -25 -25 -25 -25 -25 -25 -24 -24 -24 -24 -24 -24 -24
-21 -22 -22 -22 -22 -23 -23 -24 -24 -24 -24 -25 -25 -25 -26 -25 -25 -25 -25 -25 -24 -24 -24 -24 -24 -24 -24
-22 -23 -23 -23 -24 -24 -25 -25 -25 -25 -25 -25 -26 -26 -26 -25 -25 -25 -25 -25 -24 -24 -24 -24 -24 -23 -23
-23 -24 -24 -24 -24 -24 -25 -25 -25 -25 -25 -26 -26 -26 -26 -26 -25 -25 -25 -24 -24 -24 -24 -24 -24 -24 -24
-24 -24 -24 -25 -25 -26 -26 -26 -26 -26 -26 -26 -26 -26 -26 -25 -25 -25 -25 -25 -24 -24 -24 -24 -24 -24 -24
-25 -25 -26 -26 -26 -26 -26 -26 -26 -26 -26 -26 -26 -26 -26 -25 -25 -25 -25 -24 -25 -25 -25 -25 -25 -25 -24
-26 -26 -26 -26 -26 -26 -26 -26 -26 -26 -26 -26 -26 -26 -26 -25 -25 -25 -25 -25 -25 -25 -25 -25 -24 -24 -24
-26 -26 -26 -26 -27 -27 -27 -27 -26 -26 -26 -26 -26 -26 -26 -25 -25 -25 -25 -25 -25 -25 -25 -25 -25 -25 -25
-26 -26 -27 -27 -27 -27 -27 -27 -27 -26 -26 -26 -26 -26 -26 -25 -25 -25 -25 -25 -25 -25 -25 -25 -25 -25 -25
-26 -27 -27 -27 -27 -27 -27 -27 -27 -26 -26 -26 -26 -26 -26 -25 -25 -25 -25 -25 -25 -25 -25 -25 -25 -25 -25
-27 -27 -27 -27 -27 -27 -27 -27 -27 -26 -26 -26 -26 -26 -25 -25 -25 -25 -25 -25 -25 -25 -25 -25 -26 -26 -26
-28 -28 -28 -27 -27 -27 -27 -27 -27 -27 -26 -26 -26 -25 -25 -25 -25 -25 -25 -25 -25 -25 -25 -26 -26 -26 -26
-28 -28 -28 -27 -27 -27 -27 -27 -27 -26 -26 -26 -26 -25 -25 -25 -25 -25 -25 -25 -25 -25 -25 -26 -26 -26 -26
-28 -28 -28 -28 -27 -27 -27 -27 -27 -26 -26 -26 -26 -26 -25 -25 -25 -25 -25 -25 -25 -25 -25 -26 -26 -26 -26
-28 -28 -28 -28 -28 -28 -27 -27 -27 -27 -27 -26 -26 -26 -26 -26 -26 -25 -25 -25 -25 -25 -26 -26 -26 -26 -26

GFSFLT2_500_temp_291.txt.gz
Temp
-18 -19 -19 -20 -20 -20 -20 -20 -20 -20 -21 -21 -22 -22 -22 -22 -23 -23 -23 -23 -23 -24 -24 -24 -24 -24 -25
-19 -19 -20 -20 -21 -21 -21 -21 -21 -21 -21 -22 -23 -23 -23 -23 -23 -24 -24 -24 -24 -24 -24 -25 -25 -25 -25
-20 -20 -20 -21 -22 -22 -22 -22 -23 -23 -23 -23 -23 -23 -24 -24 -24 -25 -24 -25 -25 -26 -25 -25 -25 -25 -25
-21 -21 -21 -22 -23 -23 -23 -23 -23 -23 -24 -23 -23 -24 -24 -24 -25 -25 -25 -25 -26 -26 -25 -25 -25 -25 -25
-21 -22 -23 -23 -23 -24 -24 -24 -24 -24 -24 -24 -24 -25 -25 -25 -26 -26 -26 -26 -26 -26 -26 -25 -25 -25 -24
-23 -24 -24 -25 -24 -24 -25 -24 -24 -24 -25 -25 -25 -26 -26 -26 -26 -26 -26 -26 -26 -26 -26 -25 -25 -25 -24
-25 -25 -24 -25 -24 -25 -25 -25 -25 -25 -25 -26 -26 -26 -27 -27 -26 -26 -26 -26 -26 -26 -26 -25 -25 -25 -25
-25 -24 -25 -25 -25 -25 -25 -25 -25 -26 -26 -27 -27 -27 -27 -27 -27 -27 -26 -26 -26 -26 -26 -25 -25 -25 -25
-25 -25 -25 -25 -25 -25 -25 -25 -26 -27 -26 -27 -27 -27 -27 -27 -27 -27 -26 -26 -26 -26 -26 -25 -25 -25 -25
-26 -26 -26 -26 -25 -26 -26 -27 -27 -27 -27 -27 -27 -27 -27 -27 -27 -27 -27 -26 -26 -26 -26 -25 -25 -26 -25
-26 -26 -26 -26 -26 -27 -27 -27 -27 -27 -27 -27 -27 -28 -28 -28 -27 -27 -27 -26 -26 -26 -26 -26 -25 -25 -26
-26 -26 -27 -27 -27 -27 -27 -27 -27 -27 -27 -27 -27 -27 -28 -28 -27 -27 -27 -26 -26 -26 -26 -26 -25 -25 -25
-27 -27 -28 -27 -27 -27 -27 -27 -27 -27 -27 -27 -28 -28 -28 -27 -27 -27 -27 -26 -26 -26 -26 -26 -25 -25 -26
-28 -27 -27 -27 -28 -28 -28 -29 -28 -28 -28 -28 -28 -28 -28 -27 -27 -27 -27 -26 -26 -26 -26 -26 -25 -26 -26
-27 -27 -28 -28 -29 -29 -29 -29 -28 -28 -28 -28 -28 -28 -27 -27 -27 -27 -26 -26 -26 -26 -26 -26 -25 -26 -26
-28 -28 -28 -29 -29 -29 -29 -28 -28 -28 -28 -28 -28 -28 -27 -27 -27 -27 -26 -26 -26 -26 -26 -26 -26 -26 -26
-28 -28 -29 -29 -29 -29 -28 -28 -28 -28 -28 -28 -28 -27 -27 -27 -27 -27 -26 -26 -26 -26 -25 -25 -25 -26 -26

GFSFLT2_500_temp_297.txt.gz
Temp
-17 -17 -18 -17 -18 -18 -18 -18 -18 -19 -19 -20 -20 -20 -20 -21 -21 -21 -22 -22 -22 -22 -23 -23 -23 -23 -23
-18 -18 -18 -18 -18 -18 -18 -18 -18 -19 -21 -21 -22 -22 -22 -22 -22 -23 -23 -23 -23 -24 -23 -24 -24 -24 -24
-18 -18 -18 -18 -18 -18 -19 -20 -22 -22 -23 -23 -23 -23 -23 -23 -23 -23 -24 -24 -24 -24 -24 -24 -25 -25 -26
-19 -18 -19 -19 -19 -19 -21 -23 -24 -24 -24 -24 -24 -23 -23 -24 -24 -24 -24 -24 -25 -25 -25 -25 -25 -26 -26
-18 -18 -19 -20 -20 -22 -24 -25 -26 -25 -25 -24 -24 -24 -24 -24 -24 -24 -24 -24 -25 -26 -26 -26 -26 -26 -26
-20 -21 -23 -25 -26 -26 -26 -26 -25 -25 -25 -25 -25 -24 -24 -25 -24 -24 -25 -25 -25 -25 -27 -27 -27 -27 -26
-24 -24 -25 -26 -26 -26 -26 -26 -25 -26 -25 -25 -25 -25 -25 -25 -25 -25 -25 -26 -26 -27 -27 -27 -27 -26 -26
-24 -25 -25 -26 -26 -26 -26 -26 -26 -25 -25 -25 -25 -25 -25 -25 -25 -26 -26 -27 -27 -27 -27 -27 -27 -27 -26
-25 -25 -26 -26 -26 -26 -26 -26 -26 -26 -26 -25 -26 -26 -25 -25 -26 -27 -27 -27 -27 -27 -27 -27 -27 -27 -26
-27 -27 -27 -27 -27 -27 -27 -26 -26 -26 -26 -26 -26 -26 -26 -27 -27 -27 -27 -27 -27 -27 -27 -27 -27 -27 -26
-27 -27 -26 -26 -27 -27 -27 -26 -26 -26 -26 -27 -26 -27 -27 -27 -27 -27 -27 -27 -28 -27 -27 -27 -27 -27 -27
-27 -26 -26 -26 -27 -27 -27 -27 -26 -26 -27 -27 -27 -27 -27 -27 -27 -28 -28 -28 -28 -27 -27 -27 -27 -27 -27
-27 -27 -26 -27 -27 -27 -27 -27 -27 -27 -27 -28 -28 -27 -27 -27 -28 -28 -28 -29 -28 -28 -27 -27 -27 -27 -27
-27 -27 -27 -27 -27 -27 -27 -27 -27 -27 -27 -28 -28 -28 -28 -28 -28 -28 -28 -28 -28 -28 -27 -27 -27 -27 -26
-28 -27 -27 -27 -27 -27 -27 -27 -27 -28 -29 -29 -29 -29 -28 -28 -28 -28 -28 -28 -28 -28 -27 -27 -27 -27 -26
-28 -28 -28 -28 -27 -27 -27 -28 -29 -29 -29 -29 -30 -30 -29 -29 -28 -28 -28 -28 -28 -28 -27 -27 -27 -27 -26
-28 -28 -28 -28 -28 -28 -28 -29 -29 -29 -29 -29 -29 -29 -29 -29 -29 -28 -28 -28 -28 -27 -27 -27 -27 -26 -26

GFSFLT2_500_temp_300.txt.gz
Temp
-18 -18 -18 -18 -18 -18 -18 -18 -18 -18 -18 -18 -19 -19 -19 -21 -23 -22 -23 -23 -22 -23 -23 -23 -23 -23 -23
-18 -18 -18 -18 -18 -18 -17 -17 -17 -17 -18 -19 -19 -21 -24 -24 -24 -23 -23 -23 -23 -23 -23 -24 -24 -24 -24
-18 -18 -18 -18 -17 -17 -18 -18 -19 -21 -22 -23 -24 -25 -25 -25 -24 -24 -24 -24 -24 -24 -24 -24 -24 -24 -24
-19 -18 -18 -18 -18 -18 -18 -20 -23 -24 -24 -25 -26 -25 -25 -25 -25 -24 -24 -24 -24 -24 -25 -25 -25 -25 -25
-19 -20 -20 -20 -20 -20 -22 -23 -25 -26 -26 -26 -26 -26 -26 -25 -25 -25 -25 -24 -24 -25 -25 -25 -26 -26 -26
-21 -22 -23 -24 -23 -23 -24 -24 -25 -26 -26 -26 -26 -26 -25 -25 -25 -25 -25 -24 -25 -25 -25 -26 -26 -26 -27
-25 -25 -25 -24 -24 -25 -25 -26 -26 -26 -26 -26 -26 -26 -26 -25 -26 -25 -25 -25 -26 -26 -26 -26 -27 -27 -27
-26 -26 -26 -25 -26 -26 -27 -26 -27 -27 -26 -26 -26 -26 -26 -26 -26 -25 -25 -26 -26 -26 -26 -27 -28 -28 -27
-26 -26 -26 -26 -26 -27 -27 -27 -26 -26 -26 -26 -26 -26 -26 -26 -26 -26 -26 -26 -27 -27 -27 -28 -28 -28 -27
-26 -26 -27 -27 -26 -26 -27 -27 -26 -27 -27 -26 -26 -26 -26 -26 -26 -26 -27 -27 -27 -27 -27 -27 -28 -27 -27
-26 -27 -27 -27 -27 -27 -27 -27 -27 -27 -26 -27 -27 -26 -27 -27 -27 -27 -27 -27 -27 -27 -27 -28 -28 -27 -27
-28 -28 -28 -27 -27 -27 -27 -27 -27 -27 -27 -27 -27 -27 -27 -27 -28 -27 -27 -27 -27 -27 -27 -28 -28 -27 -27
-30 -29 -29 -28 -27 -27 -27 -27 -27 -28 -27 -27 -28 -28 -28 -28 -27 -27 -27 -27 -28 -28 -28 -28 -28 -27 -27
-30 -29 -28 -28 -28 -27 -28 -28 -27 -27 -27 -27 -27 -28 -28 -28 -28 -27 -27 -28 -28 -29 -29 -28 -28 -27 -27
-29 -29 -29 -28 -28 -28 -28 -28 -27 -27 -27 -28 -28 -29 -29 -29 -28 -28 -28 -28 -28 -29 -28 -28 -28 -27 -27
-30 -29 -29 -28 -29 -28 -28 -28 -27 -28 -28 -29 -29 -29 -30 -30 -29 -29 -28 -28 -28 -28 -28 -28 -28 -27 -27
-29 -29 -29 -28 -28 -28 -28 -28 -28 -28 -29 -29 -29 -29 -30 -30 -30 -29 -29 -29 -28 -28 -28 -28 -28 -27 -27